Hourly Data Report for October 26, 2004

TORONTO CITY
ONTARIO

43°40'00.000" N
79°24'00.000" W
112.50 m
6158355
71508
XTO

Download Data

Hourly Data (October 2004)
Hourly Data Report for October 26, 2004
TIME
LST
Temp Definition
°C
Dew Point Definition
°C
Rel Hum Definition
%
Precip. Amount Definition
mm

Wind Dir Definition
10's deg

Wind Spd Definition
km/h
Visibility Definition
km
Stn Press Definition
kPa
Hmdx Definition


Wind Chill Definition


Weather Definition


00:00 9.7 9.2 97   LegendMM LegendMM LegendMM 100.67     LegendNANA
01:00 10.1 9.6 97   LegendMM LegendMM LegendMM 100.70     LegendNANA
02:00 9.8 9.3 97   LegendMM LegendMM LegendMM 100.75     LegendNANA
03:00 9.5 9.1 97   LegendMM LegendMM LegendMM 100.77     LegendNANA
04:00 9.2 8.9 98   LegendMM LegendMM LegendMM 100.76     LegendNANA
05:00 9.1 9.0 99   LegendMM LegendMM LegendMM 100.83     LegendNANA
06:00 8.9 8.8 99   LegendMM LegendMM LegendMM 100.91     LegendNANA
07:00 8.6 8.5 99   LegendMM LegendMM LegendMM 100.91     LegendNANA
08:00 9.0 8.9 99   LegendMM LegendMM LegendMM 100.98     LegendNANA
09:00 9.7 9.5 99   LegendMM LegendMM LegendMM 100.99     LegendNANA
10:00 9.8 9.5 98   LegendMM LegendMM LegendMM 100.99     LegendNANA
11:00 10.0 9.4 96   LegendMM LegendMM LegendMM 100.98     LegendNANA
12:00 12.4 9.4 82   LegendMM LegendMM LegendMM 100.90     LegendNANA
13:00 12.8 9.5 80   LegendMM LegendMM LegendMM 100.90     LegendNANA
14:00 13.1 9.7 80   LegendMM LegendMM LegendMM 100.84     LegendNANA
15:00 13.0 9.6 80   LegendMM LegendMM LegendMM 100.85     LegendNANA
16:00 12.8 9.8 82   LegendMM LegendMM LegendMM 100.86     LegendNANA
17:00 11.9 9.8 87   LegendMM LegendMM LegendMM 100.87     LegendNANA
18:00 11.4 9.1 86   LegendMM LegendMM LegendMM 100.85     LegendNANA
19:00 11.7 9.3 85   LegendMM LegendMM LegendMM 100.92     LegendNANA
20:00 10.1 9.2 94   LegendMM LegendMM LegendMM 100.95     LegendNANA
21:00 10.3 9.4 94   LegendMM LegendMM LegendMM 100.93     LegendNANA
22:00 10.9 9.7 92   LegendMM LegendMM LegendMM 100.93     LegendNANA
23:00 11.1 9.9 92   LegendMM LegendMM LegendMM 100.89     LegendNANA

Notes on Data Quality.

Legend

  • E = Estimated
  • M = Missing
  • NA = Not Available*
  • [empty] = Indicates an unobserved value
Date modified: